Simultaneous Nadir Overpasses (SNOs) Predictions

Prediction of SNOs between GOES-15 and TERRA Satellite Orbit:

Table of predicted SNOs for the next 14.0 days since TLE Epoch: 8/17/2024
Index Date Time (GOES-15) GOES-15 Lat,Lon TERRA Lat,Lon Distance(km) Time Diff (sec)
1 08/18/2024 17:21:21 0.11, 61.76 0.94, 65.66 443.75 80
2 08/19/2024 05:38:31 -0.15, 61.64 0.02, 60.83 92.40 80
3 08/21/2024 05:23:28 -0.14, 61.62 -0.86, 65.10 396.08 80
4 08/21/2024 17:40:47 0.17, 61.72 -0.16, 60.24 168.25 80
5 08/23/2024 17:25:43 0.16, 61.70 0.73, 64.52 320.51 80
6 08/24/2024 05:42:54 -0.19, 61.58 0.18, 59.68 215.46 80
7 08/26/2024 05:27:48 -0.18, 61.56 -0.66, 63.97 273.20 80
8 08/26/2024 17:45:07 0.21, 61.67 -0.33, 59.11 291.09 80
9 08/28/2024 17:30:01 0.19, 61.66 0.57, 63.39 197.30 80
10 08/29/2024 05:47:10 -0.22, 61.55 0.41, 58.57 338.77 80
